Time,TemperatureF,DewpointF,PressureIn,WindDirection,WindDirectionDegrees,WindSpeedMPH,WindSpeedGustMPH,Humidity,HourlyPrecipIn,Conditions,Clouds,dailyrainin,SoftwareType,DateUTC
2013-09-22 00:01:00,55.7,53.1,29.70,SSE,166,1.1,0.0,91,0.01,RA,,0.00,WeatherDisplay:10.37,2013-09-22 04:01:00,
2013-09-22 00:03:00,55.6,53.0,29.70,NW,319,3.5,3.5,91,0.01,RA,,0.00,WeatherDisplay:10.37,2013-09-22 04:03:00,
2013-09-22 00:08:00,55.5,52.9,29.70,ESE,104,8.1,8.1,91,0.01,RA,,0.00,WeatherDisplay:10.37,2013-09-22 04:08:00,
2013-09-22 00:13:00,55.4,52.8,29.70,North,350,1.1,0.0,91,0.00,,,0.00,WeatherDisplay:10.37,2013-09-22 04:13:00,
2013-09-22 00:18:00,55.2,52.6,29.70,SE,134,2.3,0.0,91,0.00,,,0.00,WeatherDisplay:10.37,2013-09-22 04:18:00,
2013-09-22 00:23:00,55.0,52.4,29.70,WSW,257,1.1,0.0,91,0.00,,,0.00,WeatherDisplay:10.37,2013-09-22 04:23:00,
2013-09-22 00:28:00,54.8,52.2,29.70,West,267,0.0,0.0,91,0.00,,,0.00,WeatherDisplay:10.37,2013-09-22 04:28:00,
2013-09-22 00:33:00,54.6,52.0,29.71,North,351,2.0,2.0,91,0.00,,,0.00,WeatherDisplay:10.37,2013-09-22 04:33:00,
2013-09-22 00:38:00,54.3,51.7,29.71,WSW,255,3.5,3.5,91,0.00,,,0.00,WeatherDisplay:10.37,2013-09-22 04:38:00,
2013-09-22 00:43:00,54.1,51.5,29.70,East,92,2.3,2.3,91,0.00,,,0.00,WeatherDisplay:10.37,2013-09-22 04:43:00,
2013-09-22 00:48:00,53.9,51.3,29.71,WSW,255,3.5,0.0,91,0.00,,,0.00,WeatherDisplay:10.37,2013-09-22 04:48:00,
2013-09-22 00:53:00,53.7,51.1,29.71,ENE,65,3.5,3.5,91,0.00,,,0.00,WeatherDisplay:10.37,2013-09-22 04:53:00,
2013-09-22 00:58:00,53.6,51.0,29.71,SSE,148,0.0,0.0,91,0.00,,,0.00,WeatherDisplay:10.37,2013-09-22 04:58:00,
2013-09-22 01:03:00,53.4,50.8,29.71,West,267,1.1,0.0,91,0.00,,,0.00,WeatherDisplay:10.37,2013-09-22 05:03:00,
2013-09-22 01:08:00,53.3,50.7,29.71,West,263,1.1,1.1,91,0.00,,,0.00,WeatherDisplay:10.37,2013-09-22 05:08:00,
2013-09-22 01:13:00,53.2,50.6,29.71,ENE,71,0.0,0.0,91,0.00,,,0.00,WeatherDisplay:10.37,2013-09-22 05:13:00,
2013-09-22 01:18:00,53.1,50.5,29.71,ESE,120,3.5,3.5,91,0.00,,,0.00,WeatherDisplay:10.37,2013-09-22 05:18:00,
2013-09-22 01:23:00,53.0,50.4,29.71,SW,226,0.0,0.0,91,0.00,,,0.00,WeatherDisplay:10.37,2013-09-22 05:23:00,
2013-09-22 01:28:00,52.8,50.2,29.71,WSW,256,3.5,3.5,91,0.00,,,0.00,WeatherDisplay:10.37,2013-09-22 05:28:00,
2013-09-22 01:33:00,52.8,50.2,29.72,NNW,343,2.3,2.3,91,0.00,,,0.00,WeatherDisplay:10.37,2013-09-22 05:33:00,
2013-09-22 01:38:00,52.7,50.1,29.72,East,79,1.1,1.1,91,0.00,,,0.00,WeatherDisplay:10.37,2013-09-22 05:38:00,
2013-09-22 01:44:00,52.6,50.0,29.72,ENE,61,0.0,0.0,91,0.00,,,0.00,WeatherDisplay:10.37,2013-09-22 05:44:00,
2013-09-22 01:49:00,52.5,49.9,29.72,ENE,66,0.0,0.0,91,0.00,,,0.00,WeatherDisplay:10.37,2013-09-22 05:49:00,
2013-09-22 01:54:00,52.4,49.8,29.72,ENE,64,0.0,0.0,91,0.00,,,0.00,WeatherDisplay:10.37,2013-09-22 05:54:00,
2013-09-22 01:59:00,52.3,49.8,29.72,East,91,1.1,0.0,91,0.00,,,0.00,WeatherDisplay:10.37,2013-09-22 05:59:00,
2013-09-22 02:04:00,52.3,49.8,29.72,ENE,63,1.1,1.1,91,0.00,,,0.00,WeatherDisplay:10.37,2013-09-22 06:04:00,
2013-09-22 02:09:00,52.2,49.7,29.72,NE,42,0.0,0.0,91,0.00,,,0.00,WeatherDisplay:10.37,2013-09-22 06:09:00,
2013-09-22 02:14:00,52.2,49.7,29.72,ENE,66,0.0,0.1,91,0.00,,,0.00,WeatherDisplay:10.37,2013-09-22 06:14:00,
2013-09-22 02:19:00,52.1,49.6,29.72,ENE,58,0.0,0.0,91,0.00,,,0.00,WeatherDisplay:10.37,2013-09-22 06:19:00,
2013-09-22 02:24:00,52.0,49.5,29.72,ENE,64,2.3,2.3,91,0.00,,,0.00,WeatherDisplay:10.37,2013-09-22 06:24:00,
2013-09-22 02:29:00,52.0,49.5,29.72,SSW,194,0.0,0.0,91,0.00,,,0.00,WeatherDisplay:10.37,2013-09-22 06:29:00,
2013-09-22 02:34:00,51.9,49.6,29.72,WSW,240,4.0,4.0,92,0.00,,,0.00,WeatherDisplay:10.37,2013-09-22 06:34:00,
2013-09-22 02:39:00,51.8,49.5,29.72,NE,36,1.1,1.1,92,0.00,,,0.00,WeatherDisplay:10.37,2013-09-22 06:39:00,
2013-09-22 02:44:00,51.7,49.5,29.72,ENE,66,1.1,1.1,92,0.00,,,0.00,WeatherDisplay:10.37,2013-09-22 06:44:00,
2013-09-22 02:49:00,51.6,49.4,29.72,NNE,20,2.3,2.3,92,0.00,,,0.00,WeatherDisplay:10.37,2013-09-22 06:49:00,
2013-09-22 02:54:00,51.6,49.6,29.72,West,275,1.1,1.1,93,0.00,,,0.00,WeatherDisplay:10.37,2013-09-22 06:54:00,
2013-09-22 02:59:00,51.6,49.6,29.72,ENE,76,0.0,0.0,93,0.00,,,0.00,WeatherDisplay:10.37,2013-09-22 06:59:00,
2013-09-22 03:04:00,51.6,49.6,29.72,WNW,283,3.5,3.5,93,0.00,,,0.00,WeatherDisplay:10.37,2013-09-22 07:04:00,
2013-09-22 03:09:00,51.6,49.6,29.72,ENE,62,1.1,0.0,93,0.00,,,0.00,WeatherDisplay:10.37,2013-09-22 07:09:00,
2013-09-22 03:14:00,51.5,49.5,29.72,NNW,342,3.5,3.5,93,0.00,,,0.00,WeatherDisplay:10.37,2013-09-22 07:14:00,
2013-09-22 03:19:00,51.4,49.4,29.72,North,356,0.0,0.0,93,0.00,,,0.00,WeatherDisplay:10.37,2013-09-22 07:19:00,
2013-09-22 03:24:00,51.2,49.2,29.72,SE,139,0.0,0.0,93,0.00,,,0.00,WeatherDisplay:10.37,2013-09-22 07:24:00,
2013-09-22 03:29:00,51.1,49.1,29.72,NE,53,2.3,2.3,93,0.00,,,0.00,WeatherDisplay:10.37,2013-09-22 07:29:00,
2013-09-22 03:34:00,50.9,48.9,29.72,NNW,345,1.1,0.0,93,0.00,,,0.00,WeatherDisplay:10.37,2013-09-22 07:34:00,
2013-09-22 03:39:00,50.9,48.9,29.72,SE,144,1.1,1.1,93,0.00,,,0.00,WeatherDisplay:10.37,2013-09-22 07:39:00,
2013-09-22 03:44:00,50.8,48.8,29.72,SW,233,0.0,0.0,93,0.00,,,0.00,WeatherDisplay:10.37,2013-09-22 07:44:00,
2013-09-22 03:49:00,50.7,48.7,29.73,NE,56,1.1,0.0,93,0.00,,,0.00,WeatherDisplay:10.37,2013-09-22 07:49:00,
2013-09-22 03:54:00,50.6,48.7,29.73,NW,319,1.1,0.0,93,0.00,,,0.00,WeatherDisplay:10.37,2013-09-22 07:54:00,
2013-09-22 03:59:00,50.6,48.7,29.73,East,86,0.0,0.0,93,0.00,,,0.00,WeatherDisplay:10.37,2013-09-22 07:59:00,
2013-09-22 04:04:00,50.5,48.6,29.73,East,97,0.0,0.0,93,0.00,,,0.00,WeatherDisplay:10.37,2013-09-22 08:04:00,
2013-09-22 04:09:00,50.5,48.6,29.73,South,169,0.0,0.0,93,0.00,,,0.00,WeatherDisplay:10.37,2013-09-22 08:09:00,
2013-09-22 04:14:00,50.5,48.6,29.73,NNE,18,0.0,0.0,93,0.00,,,0.00,WeatherDisplay:10.37,2013-09-22 08:14:00,
2013-09-22 04:19:00,50.4,48.5,29.73,East,90,0.0,0.0,93,0.01,RA,,0.01,WeatherDisplay:10.37,2013-09-22 08:19:00,
2013-09-22 04:24:00,50.5,48.6,29.74,NNE,33,0.0,0.0,93,0.01,RA,,0.01,WeatherDisplay:10.37,2013-09-22 08:24:00,
2013-09-22 04:29:00,50.6,48.4,29.74,SW,228,4.6,4.6,92,0.01,,,0.01,WeatherDisplay:10.37,2013-09-22 08:29:00,
2013-09-22 04:34:00,50.6,48.4,29.74,NE,46,1.1,0.0,92,0.01,,,0.01,WeatherDisplay:10.37,2013-09-22 08:34:00,
2013-09-22 04:39:00,50.8,48.6,29.74,WSW,253,2.3,2.3,92,0.01,,,0.01,WeatherDisplay:10.37,2013-09-22 08:39:00,
2013-09-22 04:44:00,50.9,48.7,29.74,West,276,1.0,2.0,92,0.01,,,0.01,WeatherDisplay:10.37,2013-09-22 08:44:00,
2013-09-22 04:49:00,51.0,48.8,29.74,ENE,59,3.5,0.0,92,0.01,,,0.01,WeatherDisplay:10.37,2013-09-22 08:49:00,
2013-09-22 04:54:00,51.0,48.8,29.75,ESE,122,1.1,1.1,92,0.01,,,0.01,WeatherDisplay:10.37,2013-09-22 08:54:00,
2013-09-22 04:59:00,51.1,49.1,29.75,NW,323,1.1,1.1,93,0.01,,,0.01,WeatherDisplay:10.37,2013-09-22 08:59:00,
2013-09-22 05:04:00,51.2,49.0,29.75,East,82,0.0,0.0,92,0.01,,,0.01,WeatherDisplay:10.37,2013-09-22 09:04:00,
2013-09-22 05:09:00,51.1,48.9,29.75,NNE,17,2.3,0.0,92,0.01,,,0.01,WeatherDisplay:10.37,2013-09-22 09:09:00,
2013-09-22 05:14:00,51.1,48.9,29.75,West,267,2.3,2.3,92,0.01,,,0.01,WeatherDisplay:10.37,2013-09-22 09:14:00,
2013-09-22 05:19:00,51.1,48.9,29.75,ENE,58,1.1,0.0,92,0.01,RA,,0.02,WeatherDisplay:10.37,2013-09-22 09:19:00,
2013-09-22 05:24:00,51.1,48.9,29.75,West,259,2.3,0.0,92,0.01,RA,,0.02,WeatherDisplay:10.37,2013-09-22 09:24:00,
2013-09-22 05:29:00,51.2,49.0,29.75,West,266,2.3,3.0,92,0.01,,,0.02,WeatherDisplay:10.37,2013-09-22 09:29:00,
2013-09-22 05:34:00,51.2,49.0,29.75,West,270,1.1,1.1,92,0.01,,,0.02,WeatherDisplay:10.37,2013-09-22 09:34:00,
2013-09-22 05:39:00,51.3,49.1,29.75,North,359,3.5,3.5,92,0.01,,,0.02,WeatherDisplay:10.37,2013-09-22 09:39:00,
2013-09-22 05:45:00,51.3,49.1,29.76,SW,232,1.1,1.1,92,0.01,,,0.02,WeatherDisplay:10.37,2013-09-22 09:45:00,
2013-09-22 05:50:00,51.3,49.1,29.76,NNE,18,1.1,1.1,92,0.01,,,0.02,WeatherDisplay:10.37,2013-09-22 09:50:00,
2013-09-22 05:55:00,51.3,49.1,29.76,WSW,249,3.5,3.5,92,0.01,,,0.02,WeatherDisplay:10.37,2013-09-22 09:55:00,
2013-09-22 06:00:00,51.3,49.1,29.76,WNW,283,3.5,3.5,92,0.01,,,0.02,WeatherDisplay:10.37,2013-09-22 10:00:00,
2013-09-22 06:05:00,51.3,49.1,29.76,SW,232,0.0,0.0,92,0.01,,,0.02,WeatherDisplay:10.37,2013-09-22 10:05:00,
2013-09-22 06:10:00,51.3,49.1,29.76,WSW,256,1.1,1.1,92,0.01,,,0.02,WeatherDisplay:10.37,2013-09-22 10:10:00,
2013-09-22 06:15:00,51.3,49.1,29.76,WNW,294,3.5,3.5,92,0.01,,,0.02,WeatherDisplay:10.37,2013-09-22 10:15:00,
2013-09-22 06:20:00,51.2,49.0,29.77,West,276,0.0,0.0,92,0.00,,,0.02,WeatherDisplay:10.37,2013-09-22 10:20:00,
2013-09-22 06:25:00,51.2,49.0,29.77,NW,313,0.0,0.0,92,0.00,,,0.02,WeatherDisplay:10.37,2013-09-22 10:25:00,
2013-09-22 06:30:00,51.2,49.0,29.77,West,280,2.3,2.3,92,0.00,,,0.02,WeatherDisplay:10.37,2013-09-22 10:30:00,
2013-09-22 06:35:00,51.2,49.0,29.77,WSW,249,0.0,0.0,92,0.00,,,0.02,WeatherDisplay:10.37,2013-09-22 10:35:00,
2013-09-22 06:40:00,51.2,49.0,29.78,NW,325,2.3,2.3,92,0.00,,,0.02,WeatherDisplay:10.37,2013-09-22 10:40:00,
2013-09-22 06:45:00,51.2,49.0,29.78,WNW,292,2.3,2.3,92,0.00,,,0.02,WeatherDisplay:10.37,2013-09-22 10:45:00,
2013-09-22 06:50:00,51.2,49.0,29.78,WNW,282,3.5,3.5,92,0.01,RA,,0.03,WeatherDisplay:10.37,2013-09-22 10:50:00,
2013-09-22 07:01:00,51.2,49.0,29.78,SW,236,3.5,0.0,92,0.01,,,0.03,WeatherDisplay:10.37,2013-09-22 11:01:00,
2013-09-22 07:06:00,51.2,49.0,29.79,WNW,294,0.0,0.0,92,0.01,,,0.03,WeatherDisplay:10.37,2013-09-22 11:06:00,
2013-09-22 07:11:00,51.2,49.0,29.79,SSE,152,0.0,0.0,92,0.01,,,0.03,WeatherDisplay:10.37,2013-09-22 11:11:00,
2013-09-22 07:16:00,51.2,49.0,29.79,NW,324,0.0,0.0,92,0.01,,,0.03,WeatherDisplay:10.37,2013-09-22 11:16:00,
2013-09-22 07:21:00,51.2,48.7,29.79,North,350,0.0,0.0,91,0.01,,,0.03,WeatherDisplay:10.37,2013-09-22 11:21:00,
2013-09-22 07:26:00,51.2,48.7,29.79,East,83,0.0,0.0,91,0.01,,,0.03,WeatherDisplay:10.37,2013-09-22 11:26:00,
2013-09-22 07:31:00,51.2,48.7,29.80,WSW,248,0.0,0.0,91,0.01,,,0.03,WeatherDisplay:10.37,2013-09-22 11:31:00,
2013-09-22 07:36:00,51.3,48.8,29.80,WSW,248,0.0,0.0,91,0.01,,,0.03,WeatherDisplay:10.37,2013-09-22 11:36:00,
2013-09-22 07:41:00,51.3,48.8,29.80,North,5,0.0,0.0,91,0.01,,,0.03,WeatherDisplay:10.37,2013-09-22 11:41:00,
2013-09-22 07:46:00,51.3,48.8,29.80,West,273,0.0,0.0,91,0.01,,,0.03,WeatherDisplay:10.37,2013-09-22 11:46:00,
2013-09-22 07:51:00,51.3,48.8,29.80,NW,312,1.1,1.1,91,0.00,,,0.03,WeatherDisplay:10.37,2013-09-22 11:51:00,
2013-09-22 07:56:00,51.3,48.8,29.80,NE,42,2.3,2.3,91,0.00,,,0.03,WeatherDisplay:10.37,2013-09-22 11:56:00,
2013-09-22 08:01:00,51.3,48.8,29.81,West,265,1.1,0.0,91,0.00,,,0.03,WeatherDisplay:10.37,2013-09-22 12:01:00,
2013-09-22 08:06:00,51.4,48.9,29.81,SE,143,0.0,0.0,91,0.00,CLR,,0.03,WeatherDisplay:10.37,2013-09-22 12:06:00,
2013-09-22 08:11:00,51.4,48.9,29.81,WSW,258,0.0,0.0,91,0.00,CLR,,0.03,WeatherDisplay:10.37,2013-09-22 12:11:00,
2013-09-22 08:16:00,51.4,49.2,29.81,North,4,0.0,0.0,92,0.00,CLR,,0.03,WeatherDisplay:10.37,2013-09-22 12:16:00,
2013-09-22 08:21:00,51.4,49.2,29.81,West,277,1.1,1.1,92,0.00,CLR,,0.03,WeatherDisplay:10.37,2013-09-22 12:21:00,
2013-09-22 08:26:00,51.6,49.1,29.81,ESE,104,0.0,0.0,91,0.00,CLR,,0.03,WeatherDisplay:10.37,2013-09-22 12:26:00,
2013-09-22 08:31:00,51.7,49.2,29.81,North,10,1.1,1.1,91,0.00,CLR,,0.03,WeatherDisplay:10.37,2013-09-22 12:31:00,
2013-09-22 08:36:00,51.7,49.2,29.82,NE,51,1.1,0.0,91,0.00,CLR,,0.03,WeatherDisplay:10.37,2013-09-22 12:36:00,
2013-09-22 08:41:00,51.8,49.5,29.82,West,274,1.1,1.1,92,0.00,CLR,,0.03,WeatherDisplay:10.37,2013-09-22 12:41:00,
2013-09-22 08:46:00,51.7,49.5,29.82,West,267,3.5,3.5,92,0.00,CLR,,0.03,WeatherDisplay:10.37,2013-09-22 12:46:00,
2013-09-22 08:51:00,51.8,49.5,29.83,SW,236,0.0,0.0,92,0.00,CLR,,0.03,WeatherDisplay:10.37,2013-09-22 12:51:00,
2013-09-22 08:56:00,51.8,49.5,29.83,West,268,2.3,2.3,92,0.00,CLR,,0.03,WeatherDisplay:10.37,2013-09-22 12:56:00,
2013-09-22 09:01:00,51.9,49.6,29.83,WNW,302,0.0,0.0,92,0.00,CLR,,0.03,WeatherDisplay:10.37,2013-09-22 13:01:00,
2013-09-22 09:06:00,51.9,49.6,29.83,WSW,250,3.5,3.5,92,0.00,CLR,,0.03,WeatherDisplay:10.37,2013-09-22 13:06:00,
2013-09-22 09:11:00,52.0,49.7,29.83,WNW,295,3.0,3.0,92,0.00,CLR,,0.03,WeatherDisplay:10.37,2013-09-22 13:11:00,
2013-09-22 09:16:00,52.2,49.9,29.84,WNW,297,0.0,0.0,92,0.00,CLR,,0.03,WeatherDisplay:10.37,2013-09-22 13:16:00,
2013-09-22 09:21:00,52.6,50.3,29.84,NW,321,1.1,0.0,92,0.00,CLR,,0.03,WeatherDisplay:10.37,2013-09-22 13:21:00,
2013-09-22 09:26:00,52.8,50.5,29.84,WSW,257,2.0,2.0,92,0.00,CLR,,0.03,WeatherDisplay:10.37,2013-09-22 13:26:00,
2013-09-22 09:31:00,53.0,51.0,29.84,East,82,1.1,1.1,93,0.00,CLR,,0.03,WeatherDisplay:10.37,2013-09-22 13:31:00,
2013-09-22 09:36:00,53.2,51.2,29.84,North,4,3.5,3.5,93,0.00,CLR,,0.03,WeatherDisplay:10.37,2013-09-22 13:36:00,
2013-09-22 09:41:00,53.4,51.4,29.84,SW,226,2.3,0.0,93,0.00,CLR,,0.03,WeatherDisplay:10.37,2013-09-22 13:41:00,
2013-09-22 09:47:00,53.6,51.6,29.84,South,177,3.5,0.0,93,0.00,CLR,,0.03,WeatherDisplay:10.37,2013-09-22 13:47:00,
2013-09-22 09:52:00,53.9,51.9,29.85,NW,304,3.5,3.5,93,0.00,CLR,,0.03,WeatherDisplay:10.37,2013-09-22 13:52:00,
2013-09-22 09:57:00,54.1,51.8,29.85,NE,47,1.1,0.0,92,0.00,CLR,,0.03,WeatherDisplay:10.37,2013-09-22 13:57:00,
2013-09-22 10:02:00,54.3,52.0,29.85,NW,320,3.5,3.5,92,0.00,CLR,,0.03,WeatherDisplay:10.37,2013-09-22 14:02:00,
2013-09-22 10:07:00,54.1,50.6,29.85,West,264,2.3,2.3,88,0.00,CLR,,0.03,WeatherDisplay:10.37,2013-09-22 14:07:00,
2013-09-22 10:12:00,53.9,50.1,29.86,WSW,238,4.6,4.6,87,0.00,CLR,,0.03,WeatherDisplay:10.37,2013-09-22 14:12:00,
2013-09-22 10:17:00,53.9,49.5,29.86,WSW,252,6.0,6.0,85,0.00,CLR,,0.03,WeatherDisplay:10.37,2013-09-22 14:17:00,
2013-09-22 10:22:00,54.0,49.6,29.86,NW,314,3.5,3.5,85,0.00,CLR,,0.03,WeatherDisplay:10.37,2013-09-22 14:22:00,
2013-09-22 10:27:00,54.1,49.7,29.86,WNW,300,2.3,2.3,85,0.00,CLR,,0.03,WeatherDisplay:10.37,2013-09-22 14:27:00,
2013-09-22 10:32:00,54.2,48.8,29.86,West,281,8.1,8.1,82,0.00,CLR,,0.03,WeatherDisplay:10.37,2013-09-22 14:32:00,
2013-09-22 10:37:00,54.2,48.8,29.86,WSW,245,5.8,5.8,82,0.00,CLR,,0.03,WeatherDisplay:10.37,2013-09-22 14:37:00,
2013-09-22 10:42:00,54.2,48.8,29.86,West,273,8.1,8.1,82,0.00,CLR,,0.03,WeatherDisplay:10.37,2013-09-22 14:42:00,
2013-09-22 10:47:00,54.1,49.1,29.86,NNW,342,4.0,4.0,83,0.00,CLR,,0.03,WeatherDisplay:10.37,2013-09-22 14:47:00,
2013-09-22 10:52:00,54.2,48.5,29.87,WSW,252,5.8,5.8,81,0.00,CLR,,0.03,WeatherDisplay:10.37,2013-09-22 14:52:00,
2013-09-22 10:57:00,53.9,47.5,29.87,WSW,239,6.9,6.9,79,0.00,CLR,,0.03,WeatherDisplay:10.37,2013-09-22 14:57:00,
2013-09-22 11:02:00,53.9,47.5,29.87,West,262,5.8,5.8,79,0.00,CLR,,0.03,WeatherDisplay:10.37,2013-09-22 15:02:00,
2013-09-22 11:07:00,53.7,46.7,29.87,WSW,256,8.1,8.1,77,0.00,CLR,,0.03,WeatherDisplay:10.37,2013-09-22 15:07:00,
2013-09-22 11:12:00,53.6,47.9,29.88,NE,41,6.9,6.9,81,0.00,CLR,,0.03,WeatherDisplay:10.37,2013-09-22 15:12:00,
2013-09-22 11:17:00,53.7,46.7,29.88,West,281,3.5,3.5,77,0.00,CLR,,0.03,WeatherDisplay:10.37,2013-09-22 15:17:00,
2013-09-22 11:22:00,54.0,46.3,29.88,West,265,11.5,11.5,75,0.00,CLR,,0.03,WeatherDisplay:10.37,2013-09-22 15:22:00,
2013-09-22 11:27:00,53.9,45.8,29.88,North,354,11.5,11.5,74,0.00,CLR,,0.03,WeatherDisplay:10.37,2013-09-22 15:27:00,
2013-09-22 11:32:00,53.9,45.1,29.88,West,265,11.5,11.5,72,0.00,CLR,,0.03,WeatherDisplay:10.37,2013-09-22 15:32:00,
2013-09-22 11:37:00,53.9,45.8,29.88,West,276,5.8,5.8,74,0.00,CLR,,0.03,WeatherDisplay:10.37,2013-09-22 15:37:00,
2013-09-22 11:42:00,54.4,46.6,29.88,West,272,5.8,5.8,75,0.00,CLR,,0.03,WeatherDisplay:10.37,2013-09-22 15:42:00,
2013-09-22 11:47:00,54.9,47.5,29.88,NNW,340,6.0,6.0,76,0.00,CLR,,0.03,WeatherDisplay:10.37,2013-09-22 15:47:00,
2013-09-22 11:52:00,54.8,46.3,29.88,West,270,6.9,6.9,73,0.00,CLR,,0.03,WeatherDisplay:10.37,2013-09-22 15:52:00,
2013-09-22 11:57:00,54.6,46.1,29.88,North,357,12.7,12.7,73,0.00,CLR,,0.03,WeatherDisplay:10.37,2013-09-22 15:57:00,
2013-09-22 12:02:00,54.3,46.2,29.88,North,1,5.8,5.8,74,0.00,CLR,,0.03,WeatherDisplay:10.37,2013-09-22 16:02:00,
2013-09-22 12:07:00,54.6,46.8,29.89,West,269,8.1,8.1,75,0.00,CLR,,0.03,WeatherDisplay:10.37,2013-09-22 16:07:00,
2013-09-22 12:12:00,54.6,45.4,29.89,SE,131,12.7,12.7,71,0.00,CLR,,0.03,WeatherDisplay:10.37,2013-09-22 16:12:00,
2013-09-22 12:18:00,54.7,47.6,29.89,West,269,3.5,3.5,77,0.00,CLR,,0.03,WeatherDisplay:10.37,2013-09-22 16:18:00,
2013-09-22 12:23:00,54.5,47.4,29.89,SW,219,3.5,3.5,77,0.00,CLR,,0.03,WeatherDisplay:10.37,2013-09-22 16:23:00,
2013-09-22 12:28:00,54.1,46.3,29.89,WSW,250,6.9,6.9,75,0.00,CLR,,0.03,WeatherDisplay:10.37,2013-09-22 16:28:00,
2013-09-22 12:33:00,54.2,45.4,29.89,ENE,68,6.9,6.9,72,0.00,CLR,,0.03,WeatherDisplay:10.37,2013-09-22 16:33:00,
2013-09-22 12:38:00,54.4,46.3,29.89,West,266,3.5,3.5,74,0.00,CLR,,0.03,WeatherDisplay:10.37,2013-09-22 16:38:00,
2013-09-22 12:43:00,54.6,46.5,29.89,WNW,300,4.6,4.6,74,0.00,CLR,,0.03,WeatherDisplay:10.37,2013-09-22 16:43:00,
2013-09-22 12:48:00,54.7,45.1,29.89,NNW,340,10.4,10.4,70,0.00,CLR,,0.03,WeatherDisplay:10.37,2013-09-22 16:48:00,
2013-09-22 12:53:00,54.4,45.6,29.89,SW,222,5.8,5.8,72,0.00,CLR,,0.03,WeatherDisplay:10.37,2013-09-22 16:53:00,
2013-09-22 12:58:00,54.3,45.5,29.90,NNE,12,9.2,9.2,72,0.00,CLR,,0.03,WeatherDisplay:10.37,2013-09-22 16:58:00,
2013-09-22 13:03:00,54.1,45.3,29.90,WNW,301,6.9,6.9,72,0.00,CLR,,0.03,WeatherDisplay:10.37,2013-09-22 17:03:00,
2013-09-22 13:08:00,54.3,45.8,29.90,ENE,67,4.6,4.6,73,0.00,CLR,,0.03,WeatherDisplay:10.37,2013-09-22 17:08:00,
2013-09-22 13:13:00,54.5,46.7,29.90,West,273,4.0,4.0,75,0.00,CLR,,0.03,WeatherDisplay:10.37,2013-09-22 17:13:00,
2013-09-22 13:18:00,54.4,45.9,29.89,WNW,295,6.9,6.9,73,0.00,CLR,,0.03,WeatherDisplay:10.37,2013-09-22 17:18:00,
2013-09-22 13:23:00,54.3,46.2,29.89,West,281,10.4,10.4,74,0.00,CLR,,0.03,WeatherDisplay:10.37,2013-09-22 17:23:00,
2013-09-22 13:28:00,53.9,44.7,29.90,ESE,103,6.9,6.9,71,0.00,CLR,,0.03,WeatherDisplay:10.37,2013-09-22 17:28:00,
2013-09-22 13:33:00,54.0,46.3,29.90,WSW,253,6.0,6.0,75,0.00,CLR,,0.03,WeatherDisplay:10.37,2013-09-22 17:33:00,
2013-09-22 13:38:00,54.0,45.5,29.90,WNW,302,5.0,5.0,73,0.00,CLR,,0.03,WeatherDisplay:10.37,2013-09-22 17:38:00,
2013-09-22 13:43:00,54.0,44.4,29.90,WNW,301,8.1,8.1,70,0.00,CLR,,0.03,WeatherDisplay:10.37,2013-09-22 17:43:00,
2013-09-22 13:48:00,53.9,45.8,29.90,WSW,252,3.5,3.5,74,0.00,CLR,,0.03,WeatherDisplay:10.37,2013-09-22 17:48:00,
2013-09-22 13:53:00,54.1,45.6,29.90,NW,325,6.9,6.9,73,0.00,CLR,,0.03,WeatherDisplay:10.37,2013-09-22 17:53:00,
2013-09-22 13:58:00,54.3,44.7,29.90,WNW,283,4.6,4.6,70,0.00,CLR,,0.03,WeatherDisplay:10.37,2013-09-22 17:58:00,
2013-09-22 14:03:00,54.2,45.0,29.90,WSW,238,3.5,3.5,71,0.00,CLR,,0.03,WeatherDisplay:10.37,2013-09-22 18:03:00,
2013-09-22 14:08:00,54.1,44.9,29.90,NW,311,3.5,3.5,71,0.00,CLR,,0.03,WeatherDisplay:10.37,2013-09-22 18:08:00,
2013-09-22 14:13:00,54.0,45.2,29.90,NE,44,5.0,5.0,72,0.00,CLR,,0.03,WeatherDisplay:10.37,2013-09-22 18:13:00,
2013-09-22 14:18:00,53.7,44.1,29.90,NE,49,10.4,10.4,70,0.00,CLR,,0.03,WeatherDisplay:10.37,2013-09-22 18:18:00,
2013-09-22 14:23:00,53.9,44.3,29.90,West,280,5.8,5.8,70,0.00,CLR,,0.03,WeatherDisplay:10.37,2013-09-22 18:23:00,
2013-09-22 14:28:00,54.2,45.0,29.90,NW,313,3.5,3.5,71,0.00,CLR,,0.03,WeatherDisplay:10.37,2013-09-22 18:28:00,
2013-09-22 14:33:00,54.3,44.7,29.90,NNW,336,9.2,9.2,70,0.00,CLR,,0.03,WeatherDisplay:10.37,2013-09-22 18:33:00,
2013-09-22 14:38:00,54.4,45.2,29.91,NE,47,6.9,6.9,71,0.00,CLR,,0.03,WeatherDisplay:10.37,2013-09-22 18:38:00,
2013-09-22 14:43:00,54.5,44.9,29.90,WNW,295,4.6,4.6,70,0.00,CLR,,0.03,WeatherDisplay:10.37,2013-09-22 18:43:00,
2013-09-22 14:48:00,54.6,45.8,29.90,SSW,205,3.5,3.5,72,0.00,CLR,,0.03,WeatherDisplay:10.37,2013-09-22 18:48:00,
2013-09-22 14:53:00,54.4,45.6,29.91,NNW,347,5.0,5.0,72,0.00,CLR,,0.03,WeatherDisplay:10.37,2013-09-22 18:53:00,
2013-09-22 14:58:00,53.9,45.1,29.91,West,259,5.8,5.8,72,0.00,CLR,,0.03,WeatherDisplay:10.37,2013-09-22 18:58:00,
2013-09-22 15:03:00,53.7,45.2,29.91,WSW,239,6.9,6.9,73,0.00,CLR,,0.03,WeatherDisplay:10.37,2013-09-22 19:03:00,
2013-09-22 15:08:00,53.6,45.5,29.91,West,270,4.6,4.6,74,0.00,CLR,,0.03,WeatherDisplay:10.37,2013-09-22 19:08:00,
2013-09-22 15:13:00,53.4,45.0,29.91,WNW,293,4.6,4.6,73,0.00,CLR,,0.03,WeatherDisplay:10.37,2013-09-22 19:13:00,
2013-09-22 15:18:00,53.3,44.5,29.91,NE,46,11.5,11.5,72,0.00,CLR,,0.03,WeatherDisplay:10.37,2013-09-22 19:18:00,
2013-09-22 15:23:00,53.2,44.4,29.91,SSW,200,3.5,3.5,72,0.00,CLR,,0.03,WeatherDisplay:10.37,2013-09-22 19:23:00,
2013-09-22 15:28:00,53.3,43.8,29.91,West,280,9.2,9.2,70,0.00,CLR,,0.03,WeatherDisplay:10.37,2013-09-22 19:28:00,
2013-09-22 15:33:00,53.5,44.7,29.91,SW,225,4.6,4.6,72,0.00,CLR,,0.03,WeatherDisplay:10.37,2013-09-22 19:33:00,
2013-09-22 15:38:00,53.8,44.2,29.91,WNW,295,3.5,3.5,70,0.00,CLR,,0.03,WeatherDisplay:10.37,2013-09-22 19:38:00,
2013-09-22 15:43:00,54.0,44.4,29.91,WNW,292,4.6,4.6,70,0.00,CLR,,0.03,WeatherDisplay:10.37,2013-09-22 19:43:00,
2013-09-22 15:48:00,53.9,44.3,29.91,West,280,5.0,5.0,70,0.00,CLR,,0.03,WeatherDisplay:10.37,2013-09-22 19:48:00,
2013-09-22 15:53:00,53.7,44.5,29.91,NW,316,8.1,8.1,71,0.00,CLR,,0.03,WeatherDisplay:10.37,2013-09-22 19:53:00,
2013-09-22 15:58:00,53.6,44.8,29.91,WNW,287,5.0,5.0,72,0.00,CLR,,0.03,WeatherDisplay:10.37,2013-09-22 19:58:00,
2013-09-22 16:03:00,53.6,44.4,29.91,West,264,2.3,2.3,71,0.00,CLR,,0.03,WeatherDisplay:10.37,2013-09-22 20:03:00,
2013-09-22 16:08:00,53.6,43.7,29.91,WSW,242,8.1,8.1,69,0.00,CLR,,0.03,WeatherDisplay:10.37,2013-09-22 20:08:00,
2013-09-22 16:13:00,53.6,44.0,29.91,WSW,253,3.5,3.5,70,0.00,CLR,,0.03,WeatherDisplay:10.37,2013-09-22 20:13:00,
2013-09-22 16:18:00,53.6,43.7,29.92,NW,304,6.0,6.0,69,0.00,CLR,,0.03,WeatherDisplay:10.37,2013-09-22 20:18:00,
2013-09-22 16:23:00,53.4,45.0,29.92,WSW,250,3.0,3.0,73,0.00,CLR,,0.03,WeatherDisplay:10.37,2013-09-22 20:23:00,
2013-09-22 16:28:00,53.3,44.9,29.92,West,263,9.0,9.0,73,0.00,CLR,,0.03,WeatherDisplay:10.37,2013-09-22 20:28:00,
2013-09-22 16:33:00,53.2,44.8,29.92,WSW,240,3.0,3.0,73,0.00,CLR,,0.03,WeatherDisplay:10.37,2013-09-22 20:33:00,
2013-09-22 16:38:00,53.2,44.8,29.92,WSW,242,2.3,2.3,73,0.00,CLR,,0.03,WeatherDisplay:10.37,2013-09-22 20:38:00,
2013-09-22 16:43:00,53.1,45.4,29.92,NW,312,3.5,0.0,75,0.00,CLR,,0.03,WeatherDisplay:10.37,2013-09-22 20:43:00,
2013-09-22 16:48:00,53.0,45.3,29.92,NE,46,2.3,2.3,75,0.00,CLR,,0.03,WeatherDisplay:10.37,2013-09-22 20:48:00,
2013-09-22 16:54:00,52.9,45.5,29.92,NE,34,1.1,0.0,76,0.00,CLR,,0.03,WeatherDisplay:10.37,2013-09-22 20:54:00,
2013-09-22 16:59:00,52.9,45.2,29.92,West,267,4.6,4.6,75,0.00,CLR,,0.03,WeatherDisplay:10.37,2013-09-22 20:59:00,
2013-09-22 17:04:00,52.8,45.4,29.93,West,263,2.3,2.3,76,0.00,CLR,,0.03,WeatherDisplay:10.37,2013-09-22 21:04:00,
2013-09-22 17:09:00,52.8,45.1,29.93,NW,319,4.6,4.6,75,0.00,CLR,,0.03,WeatherDisplay:10.37,2013-09-22 21:09:00,
2013-09-22 17:14:00,52.6,45.2,29.93,WSW,256,1.1,1.1,76,0.00,CLR,,0.03,WeatherDisplay:10.37,2013-09-22 21:14:00,
2013-09-22 17:19:00,52.6,45.2,29.93,West,274,2.3,2.3,76,0.00,CLR,,0.03,WeatherDisplay:10.37,2013-09-22 21:19:00,
2013-09-22 17:24:00,52.5,45.2,29.93,West,264,0.0,0.0,76,0.00,CLR,,0.03,WeatherDisplay:10.37,2013-09-22 21:24:00,
2013-09-22 17:29:00,52.5,45.2,29.93,WSW,255,2.3,0.0,76,0.00,CLR,,0.03,WeatherDisplay:10.37,2013-09-22 21:29:00,
2013-09-22 17:34:00,52.4,45.4,29.93,WSW,243,1.1,1.1,77,0.00,CLR,,0.03,WeatherDisplay:10.37,2013-09-22 21:34:00,
2013-09-22 17:39:00,52.4,45.4,29.93,NW,306,2.3,0.0,77,0.00,CLR,,0.03,WeatherDisplay:10.37,2013-09-22 21:39:00,
2013-09-22 17:44:00,52.3,45.3,29.93,North,4,3.5,3.5,77,0.00,CLR,,0.03,WeatherDisplay:10.37,2013-09-22 21:44:00,
2013-09-22 17:49:00,52.2,45.5,29.94,NW,324,2.3,2.3,78,0.00,CLR,,0.03,WeatherDisplay:10.37,2013-09-22 21:49:00,
2013-09-22 17:54:00,52.2,44.9,29.94,NW,307,1.1,0.0,76,0.00,CLR,,0.03,WeatherDisplay:10.37,2013-09-22 21:54:00,
2013-09-22 17:59:00,52.2,44.9,29.94,West,260,6.9,6.9,76,0.00,CLR,,0.03,WeatherDisplay:10.37,2013-09-22 21:59:00,
2013-09-22 18:04:00,52.1,45.1,29.94,West,276,0.0,0.0,77,0.00,CLR,,0.03,WeatherDisplay:10.37,2013-09-22 22:04:00,
2013-09-22 18:09:00,52.1,46.1,29.94,North,352,1.0,1.0,80,0.00,CLR,,0.03,WeatherDisplay:10.37,2013-09-22 22:09:00,
2013-09-22 18:14:00,52.0,45.7,29.94,WSW,242,1.0,1.0,79,0.00,CLR,,0.03,WeatherDisplay:10.37,2013-09-22 22:14:00,
2013-09-22 18:19:00,51.9,45.9,29.94,WNW,288,0.0,0.0,80,0.00,CLR,,0.03,WeatherDisplay:10.37,2013-09-22 22:19:00,
2013-09-22 18:24:00,51.8,45.5,29.95,NW,323,3.5,0.0,79,0.00,CLR,,0.03,WeatherDisplay:10.37,2013-09-22 22:24:00,
2013-09-22 18:29:00,51.7,45.4,29.95,WNW,293,1.1,1.1,79,0.00,CLR,,0.03,WeatherDisplay:10.37,2013-09-22 22:29:00,
2013-09-22 18:34:00,51.5,45.5,29.95,West,277,0.0,0.0,80,0.00,CLR,,0.03,WeatherDisplay:10.37,2013-09-22 22:34:00,
2013-09-22 18:39:00,51.4,46.1,29.95,West,277,0.0,0.0,82,0.00,CLR,,0.03,WeatherDisplay:10.37,2013-09-22 22:39:00,
2013-09-22 18:44:00,51.2,45.6,29.95,NW,311,1.1,1.1,81,0.00,CLR,,0.03,WeatherDisplay:10.37,2013-09-22 22:44:00,
2013-09-22 18:50:00,51.1,45.5,29.95,WNW,285,1.1,0.0,81,0.00,CLR,,0.03,WeatherDisplay:10.37,2013-09-22 22:50:00,
2013-09-22 18:55:00,51.1,45.8,29.95,WSW,239,0.0,0.0,82,0.00,CLR,,0.03,WeatherDisplay:10.37,2013-09-22 22:55:00,
2013-09-22 19:00:00,50.9,45.6,29.95,West,273,0.0,0.0,82,0.00,CLR,,0.03,WeatherDisplay:10.37,2013-09-22 23:00:00,
2013-09-22 19:05:00,50.9,45.6,29.95,WSW,258,1.1,0.0,82,0.00,CLR,,0.03,WeatherDisplay:10.37,2013-09-22 23:05:00,
2013-09-22 19:10:00,50.8,45.5,29.96,SSW,195,0.0,0.0,82,0.00,CLR,,0.03,WeatherDisplay:10.37,2013-09-22 23:10:00,
2013-09-22 19:15:00,50.8,45.8,29.96,WSW,243,0.0,0.0,83,0.00,CLR,,0.03,WeatherDisplay:10.37,2013-09-22 23:15:00,
2013-09-22 19:20:00,50.7,45.7,29.96,WSW,245,0.0,0.0,83,0.00,CLR,,0.03,WeatherDisplay:10.37,2013-09-22 23:20:00,
2013-09-22 19:25:00,50.6,45.9,29.96,WSW,253,0.0,0.0,84,0.00,CLR,,0.03,WeatherDisplay:10.37,2013-09-22 23:25:00,
2013-09-22 19:30:00,50.5,45.5,29.96,SSW,200,0.0,0.0,83,0.00,CLR,,0.03,WeatherDisplay:10.37,2013-09-22 23:30:00,
2013-09-22 19:35:00,50.5,45.2,29.96,North,352,2.3,2.3,82,0.00,,,0.03,WeatherDisplay:10.37,2013-09-22 23:35:00,
2013-09-22 19:40:00,50.6,45.6,29.97,North,352,0.0,0.0,83,0.00,,,0.03,WeatherDisplay:10.37,2013-09-22 23:40:00,
2013-09-22 19:45:00,50.5,45.5,29.97,NNW,328,0.0,0.0,83,0.00,,,0.03,WeatherDisplay:10.37,2013-09-22 23:45:00,
2013-09-22 19:50:00,50.5,45.5,29.97,NNW,328,0.0,0.0,83,0.00,,,0.03,WeatherDisplay:10.37,2013-09-22 23:50:00,
2013-09-22 19:55:00,50.4,45.4,29.97,West,260,0.0,0.0,83,0.00,,,0.03,WeatherDisplay:10.37,2013-09-22 23:55:00,
2013-09-22 20:00:00,50.4,45.7,29.97,West,259,0.0,0.0,84,0.00,,,0.03,WeatherDisplay:10.37,2013-09-23 00:00:00,
2013-09-22 20:05:00,50.4,46.1,29.97,West,260,0.0,0.0,85,0.00,,,0.03,WeatherDisplay:10.37,2013-09-23 00:05:00,
2013-09-22 20:10:00,50.3,46.0,29.98,West,260,0.0,0.0,85,0.00,,,0.03,WeatherDisplay:10.37,2013-09-23 00:10:00,
2013-09-22 20:15:00,50.2,45.9,29.98,West,260,0.0,0.0,85,0.00,,,0.03,WeatherDisplay:10.37,2013-09-23 00:15:00,
2013-09-22 20:20:00,50.1,45.5,29.98,NW,306,0.0,0.0,84,0.00,,,0.03,WeatherDisplay:10.37,2013-09-23 00:20:00,
2013-09-22 20:25:00,50.0,45.7,29.98,NW,304,0.0,0.0,85,0.00,,,0.03,WeatherDisplay:10.37,2013-09-23 00:25:00,
2013-09-22 20:30:00,49.8,45.5,29.98,NW,304,0.0,0.0,85,0.00,,,0.03,WeatherDisplay:10.37,2013-09-23 00:30:00,
2013-09-22 20:35:00,49.8,46.1,29.98,West,263,0.0,0.0,87,0.00,,,0.03,WeatherDisplay:10.37,2013-09-23 00:35:00,
2013-09-22 20:40:00,49.7,46.0,29.99,West,263,0.0,0.0,87,0.00,,,0.03,WeatherDisplay:10.37,2013-09-23 00:40:00,
2013-09-22 20:45:00,49.7,46.0,29.99,West,265,0.0,0.0,87,0.00,,,0.03,WeatherDisplay:10.37,2013-09-23 00:45:00,
2013-09-22 20:50:00,49.7,46.0,29.99,WNW,287,0.0,0.0,87,0.00,,,0.03,WeatherDisplay:10.37,2013-09-23 00:50:00,
2013-09-22 20:55:00,49.6,45.9,29.99,WNW,287,0.0,0.0,87,0.00,,,0.03,WeatherDisplay:10.37,2013-09-23 00:55:00,
2013-09-22 21:00:00,49.6,46.2,29.99,WNW,287,0.0,0.0,88,0.00,,,0.03,WeatherDisplay:10.37,2013-09-23 01:00:00,
2013-09-22 21:05:00,49.6,45.9,29.99,West,276,0.0,0.0,87,0.00,,,0.03,WeatherDisplay:10.37,2013-09-23 01:05:00,
2013-09-22 21:10:00,49.6,46.2,30.00,West,275,0.0,0.0,88,0.00,,,0.03,WeatherDisplay:10.37,2013-09-23 01:10:00,
2013-09-22 21:15:00,49.5,46.1,30.00,West,276,0.0,0.0,88,0.00,,,0.03,WeatherDisplay:10.37,2013-09-23 01:15:00,
2013-09-22 21:20:00,49.5,45.8,30.00,West,276,0.0,0.0,87,0.00,,,0.03,WeatherDisplay:10.37,2013-09-23 01:20:00,
2013-09-22 21:25:00,49.4,45.7,30.00,West,276,0.0,0.0,87,0.00,,,0.03,WeatherDisplay:10.37,2013-09-23 01:25:00,
2013-09-22 21:30:00,49.3,45.6,30.00,West,275,0.0,0.0,87,0.00,,,0.03,WeatherDisplay:10.37,2013-09-23 01:30:00,
2013-09-22 21:35:00,49.3,45.6,30.00,NNW,329,0.0,0.0,87,0.00,,,0.03,WeatherDisplay:10.37,2013-09-23 01:35:00,
2013-09-22 21:40:00,49.3,45.6,30.00,NNW,330,0.0,0.0,87,0.00,,,0.03,WeatherDisplay:10.37,2013-09-23 01:40:00,
2013-09-22 21:45:00,49.3,45.6,30.00,NNW,330,0.0,0.0,87,0.00,,,0.03,WeatherDisplay:10.37,2013-09-23 01:45:00,
2013-09-22 21:50:00,49.2,45.5,30.00,NNW,330,0.0,0.0,87,0.00,,,0.03,WeatherDisplay:10.37,2013-09-23 01:50:00,
2013-09-22 21:56:00,49.2,46.1,30.01,NNW,330,0.0,0.0,89,0.00,,,0.03,WeatherDisplay:10.37,2013-09-23 01:56:00,
2013-09-22 22:01:00,49.2,46.1,30.01,NNW,330,0.0,0.0,89,0.00,,,0.03,WeatherDisplay:10.37,2013-09-23 02:01:00,
2013-09-22 22:06:00,49.1,46.0,30.01,NNW,330,0.0,0.0,89,0.00,CLR,,0.03,WeatherDisplay:10.37,2013-09-23 02:06:00,
2013-09-22 22:11:00,49.1,46.0,30.01,NNW,330,0.0,0.0,89,0.00,CLR,,0.03,WeatherDisplay:10.37,2013-09-23 02:11:00,
2013-09-22 22:16:00,49.1,46.3,30.01,NNW,330,0.0,0.0,90,0.00,CLR,,0.03,WeatherDisplay:10.37,2013-09-23 02:16:00,
2013-09-22 22:21:00,49.1,46.3,30.01,NNW,330,0.0,0.0,90,0.00,CLR,,0.03,WeatherDisplay:10.37,2013-09-23 02:21:00,
2013-09-22 22:26:00,49.0,46.2,30.01,NNW,330,0.0,0.0,90,0.00,CLR,,0.03,WeatherDisplay:10.37,2013-09-23 02:26:00,
2013-09-22 22:31:00,49.0,46.2,30.01,NNW,330,0.0,0.0,90,0.00,CLR,,0.03,WeatherDisplay:10.37,2013-09-23 02:31:00,
2013-09-22 22:36:00,49.0,46.2,30.01,NNW,328,0.0,0.0,90,0.00,CLR,,0.03,WeatherDisplay:10.37,2013-09-23 02:36:00,
2013-09-22 22:41:00,49.1,46.6,30.01,NNW,328,0.0,0.0,91,0.00,CLR,,0.03,WeatherDisplay:10.37,2013-09-23 02:41:00,
2013-09-22 22:46:00,49.0,46.5,30.01,NNW,327,0.0,0.0,91,0.00,CLR,,0.03,WeatherDisplay:10.37,2013-09-23 02:46:00,
2013-09-22 22:51:00,48.9,46.4,30.01,NNW,328,0.0,0.0,91,0.00,CLR,,0.03,WeatherDisplay:10.37,2013-09-23 02:51:00,
2013-09-22 22:56:00,48.8,46.3,30.01,NNW,328,0.0,0.0,91,0.00,CLR,,0.03,WeatherDisplay:10.37,2013-09-23 02:56:00,
2013-09-22 23:01:00,48.7,46.2,30.01,NNW,328,0.0,0.0,91,0.00,CLR,,0.03,WeatherDisplay:10.37,2013-09-23 03:01:00,
2013-09-22 23:06:00,48.6,46.1,30.01,NNW,328,0.0,0.0,91,0.00,CLR,,0.03,WeatherDisplay:10.37,2013-09-23 03:06:00,
2013-09-22 23:11:00,48.6,46.4,30.01,NNW,328,0.0,0.0,92,0.00,CLR,,0.03,WeatherDisplay:10.37,2013-09-23 03:11:00,
2013-09-22 23:16:00,48.6,46.4,30.01,NNW,328,0.0,0.0,92,0.00,CLR,,0.03,WeatherDisplay:10.37,2013-09-23 03:16:00,
2013-09-22 23:21:00,48.7,46.2,30.01,NW,326,0.0,0.0,91,0.00,CLR,,0.03,WeatherDisplay:10.37,2013-09-23 03:21:00,
2013-09-22 23:27:00,48.8,46.0,30.01,WNW,297,0.0,0.0,90,0.00,CLR,,0.03,WeatherDisplay:10.37,2013-09-23 03:27:00,
2013-09-22 23:32:00,49.0,46.5,30.01,WNW,297,0.0,0.0,91,0.00,CLR,,0.03,WeatherDisplay:10.37,2013-09-23 03:32:00,
2013-09-22 23:37:00,49.0,46.5,30.01,WNW,297,0.0,0.0,91,0.00,CLR,,0.03,WeatherDisplay:10.37,2013-09-23 03:37:00,
2013-09-22 23:42:00,49.0,46.5,30.01,WNW,297,0.0,0.0,91,0.00,CLR,,0.03,WeatherDisplay:10.37,2013-09-23 03:42:00,
2013-09-22 23:47:00,48.9,46.4,30.01,WNW,297,0.0,0.0,91,0.00,CLR,,0.03,WeatherDisplay:10.37,2013-09-23 03:47:00,
2013-09-22 23:52:00,48.8,46.6,30.01,WNW,298,0.0,0.0,92,0.00,CLR,,0.03,WeatherDisplay:10.37,2013-09-23 03:52:00,
2013-09-22 23:57:00,48.7,46.5,30.01,WNW,298,0.0,0.0,92,0.00,CLR,,0.03,WeatherDisplay:10.37,2013-09-23 03:57:00,